Notices

What's New in latest Release from April 7th, 2021:

- Updated Glossary, including Speed of Maximum Gust, and Total Hourly Precipitation

- Updated national and regional climate services offices contacts and prices information

- Addition of station inventory lists for 1981-2010, 1971-2000, and 1961-1990 Normals.

If you haven't already, please take our survey and provide feedback about our website: https://eccc.sondage-survey.ca/f/LanguageSelection.aspx?s=442ca660-fcf1-47c0-95a9-59707d6fd709

Hourly Data Report for August 14, 2018

TORONTO CITY
ONTARIO
Current Station Operator: ECCC - MSC

43°40'00.000" N
79°24'00.000" W
112.50 m
6158355
71508
XTO

Download Data

Hourly Data (August 2018)
Hourly Data Report for August 14, 2018
TIME
LST
Temp Definition
°C
Dew Point Definition
°C
Rel Hum Definition
%
Precip. Amount Definition
mm

Wind Dir Definition
10's deg

Wind Spd Definition
km/h
Visibility Definition
km
Stn Press Definition
kPa
Hmdx Definition


Wind Chill Definition


Weather Definition


00:00 24.1 15.9 60 0.0 LegendMM LegendMM   100.08 29   LegendNANA
01:00 22.9 15.8 64 0.0 LegendMM LegendMM   100.07 27   LegendNANA
02:00 23.1 15.3 61 0.0 LegendMM LegendMM   100.02 27   LegendNANA
03:00 22.9 15.5 63 0.0 LegendMM LegendMM   99.96 27   LegendNANA
04:00 23.2 15.1 61 0.0 LegendMM LegendMM   99.93 27   LegendNANA
05:00 22.6 15.2 63 0.0 LegendMM LegendMM   99.95 27   LegendNANA
06:00 22.7 15.6 64 0.0 LegendMM LegendMM   99.96 27   LegendNANA
07:00 23.0 15.8 64 0.0 LegendMM LegendMM   99.94 27   LegendNANA
08:00 24.1 16.4 62 0.0 LegendMM LegendMM   99.94 29   LegendNANA
09:00 24.9 15.7 57 0.0 LegendMM LegendMM   99.95 29   LegendNANA
10:00 25.9 14.9 51 0.0 LegendMM LegendMM   99.93 30   LegendNANA
11:00 26.3 14.7 49 0.0 LegendMM LegendMM   99.92 30   LegendNANA
12:00 28.5 13.3 39 0.0 LegendMM LegendMM   99.89 31   LegendNANA
13:00 30.4 15.9 42 0.0 LegendMM LegendMM   99.85 35   LegendNANA
14:00 29.5 16.3 45 0.0 LegendMM LegendMM   99.79 34   LegendNANA
15:00 29.0 13.9 40 0.0 LegendMM LegendMM   99.75 32   LegendNANA
16:00 29.4 14.2 40 0.0 LegendMM LegendMM   99.71 33   LegendNANA
17:00 28.4 14.3 42 0.0 LegendMM LegendMM   99.67 32   LegendNANA
18:00 30.0 13.7 37 0.0 LegendMM LegendMM   99.70 33   LegendNANA
19:00 28.9 14.4 41 0.0 LegendMM LegendMM   99.74 33   LegendNANA
20:00 27.4 14.8 46 0.0 LegendMM LegendMM   99.74 31   LegendNANA
21:00 25.3 15.2 53 0.0 LegendMM LegendMM   99.78 29   LegendNANA
22:00 24.1 15.3 58 0.0 LegendMM LegendMM   99.83 28   LegendNANA
23:00 23.5 14.7 58 0.0 LegendMM LegendMM   99.85 27   LegendNANA

Notes on Data Quality.

Legend

  • E = Estimated
  • M = Missing
  • NA = Not Available*
  • [empty] = Indicates an unobserved value
Date modified: